ONEWEB-0312, 49098

Orbit data source: Space-Track

ONEWEB-0312, 49098 is a payload satellite owned by One Web (NAA) (UK) in LEO that was launched on Sat, 21 Aug 2021 UTC via a SOYUZ-2-1B launch vehicle from the Tyuratam Missile And Space Complex (TTMTR). Payload-class satellites include a variety of spacecraft equipped with specific instruments for various scientific and technological missions. These include communications satellites like Starlink; space stations such as the ISS; scientific satellites like the Hubble; Earth observation satellites from companies like Planet Labs, Umbra, and HawkEye 360; GPS; miniature CubeSats for education and research; and military/defense satellites.

Loading next visibility...
Identifier
49098, 2021-075Z
Orbit
LEO
Country
Flag of UKUK
Related business
Manufacturer
One Web
Mission
Operational Commercial Communications
Bus & Motor
ARROW, Unknown motor
Mass
148 kg wet, ~140 kg dry
Launch date (UTC)
2021-08-21 (5 years ago)
Launch vehicle
SOYUZ-2-1B
Launch site
Tyuratam Missile And Space Complex (TTMTR)
Object type
Payload
Rocket body
Debris
Shape & HBR
Trap Box + 2 Pan, 6.7 m
Radar Cross Section
3.464 m², Large (>1 m²)

Expand to show TLE details & history
Last TLE update: 10 hours ago

TLE from 10 hours ago
0 ONEWEB-0312
1 49098U 21075Z   26130.14287154 -.00000166  00000-0 -46180-3 0  9996
2 49098  87.9171  13.4367 0001628  90.9327 269.1992 13.17648284228594
Epoch: 2026-05-10T03:25Z
TLE epoch observation values (Epoch: 2026-05-10T03:25:44.101Z)
Latitude
0.0001°
Longitude
94.05276°
Altitude
1,196.632 km
Speed
7.256 km/s
True Right ascension
00h 53m 44s
True Declination
0° 00' 00"
Sunlit
Object was in daylight at epoch
Visualization orbit readout
Latitude
Unknown
Longitude
Unknown
Altitude
Unknown
Speed
Unknown
Apparent Right ascension
Unknown
Apparent Declination
Unknown
Sunlit
N/A
Visualization observer readout
Local Sidereal Time
21:22:13
Azimuth
Unknown
Elevation
Unknown
Doppler factor
Unknown
Orbital elements
Apogee altitude
1,192.057 km
Perigee altitude
1,189.593 km
Semi-major axis
7,568.962 km
Eccentricity
0.00016
Inclination
87.9171°
RAAN
13.4367°
Arg. of periapsis
90.9327°
True anomaly
269.18055°
Mean anomaly
269.1992°
Eccentric anomaly
269.18987°
Mean motion
3.29601 °/min
Orbital period
109.22 mins
BSTAR
-0.0004618
Loading maneuver chart data...
Computing Atmospheric mass density...
Loading historical data...
Loading historical data...
Loading historical data...
Loading historical data...
Loading historical data...
Loading historical data...
Loading historical data...

Documentation

Showing up to 5 results
|